Location: Qu�bec
(46.8000°N, 71.2500°W)
Time: 12:54:05
(UTC-04:00)

Amateur Radio Satellites - All Passes

Search period start: 18 October 2017 12:24
Search period end: 19 October 2017 12:24
Location: Qu�bec, 46.8000°N, 71.2500°W

Satellite Date Start Highest point End Downlink Frequencies (MHz)
Time Altitude Azimuth
BEESAT 3 18 Oct 12:24:25 12:27:43 25° 115° (ESE) 12:31:03 437.485
BUGSAT 1 18 Oct 12:25:46 12:29:49 50° 71° (ENE) 12:33:56 437.445
Gurwin Techsat 1B 18 Oct 12:32:19 12:36:40 27° 62° (ENE) 12:41:03 435.225
AO-7 18 Oct 12:32:50 12:37:11 16° 38° (NE) 12:41:31 .
ISS 18 Oct 12:45:14 12:48:27 57° 340° (NNW) 12:51:41 437.550
EO-79 18 Oct 13:04:02 13:06:42 16° 270° (W) 13:09:22 145.935-145.965
POLYITAN 1 18 Oct 13:08:21 13:10:47 15° 270° (W) 13:13:14 437.675
SPROUT 18 Oct 13:16:10 13:20:29 75° 102° (ESE) 13:24:46 437.525
DX 1 18 Oct 13:21:45 13:24:24 16° 91° (E) 13:27:01 434.975-435.025
50 SAT 18 Oct 13:22:48 13:24:48 15° 93° (E) 13:26:48 437.505
SO-50 18 Oct 13:27:32 13:29:09 12° 20° (NNE) 13:30:46 436.795
M-CUBED/EXP-1 PRIME 18 Oct 13:38:32 13:41:39 33° 256° (WSW) 13:44:41 437.505
BEESAT 2 18 Oct 13:38:47 13:42:37 44° 120° (ESE) 13:46:29 435.950
AO-85 18 Oct 13:41:31 13:44:59 31° 117° (ESE) 13:48:32 145.980
VELOX 1 18 Oct 13:42:55 13:47:22 87° 283° (WNW) 13:51:49 145.980
ESTCUBE 1 18 Oct 13:44:09 13:47:19 19° 298° (WNW) 13:50:28 437.505/2401.250
UKube-1 18 Oct 13:50:21 13:53:30 19° 93° (E) 13:56:38 .
nSIGHT-1 18 Oct 13:55:15 13:58:13 33° 356° (N) 14:01:10 .
Oscar 19 18 Oct 13:58:25 14:03:21 44° 261° (W) 14:08:18 437.125/150
BEESAT 3 18 Oct 14:01:18 14:05:06 39° 314° (NW) 14:08:56 437.485
BUGSAT 1 18 Oct 14:02:41 14:05:27 17° 269° (W) 14:08:15 437.445
Gurwin Techsat 1B 18 Oct 14:11:12 14:16:21 49° 260° (W) 14:21:31 435.225
AO-7 18 Oct 14:20:11 14:28:06 52° 61° (ENE) 14:36:03 .
ISS 18 Oct 14:22:18 14:25:19 33° 0° (N) 14:28:21 437.550
ITAMSAT 1 18 Oct 14:26:34 14:30:57 28° 63° (ENE) 14:35:21 435.822/435.867
SPROUT 18 Oct 14:53:38 14:55:49 14° 301° (WNW) 14:57:58 437.525
50 SAT 18 Oct 14:54:13 14:57:15 33° 290° (WNW) 15:00:16 437.505
DX 1 18 Oct 14:56:38 15:00:57 59° 288° (WNW) 15:05:15 434.975-435.025
SO-50 18 Oct 15:06:39 15:10:55 36° 43° (NE) 15:15:13 436.795
BEESAT 2 18 Oct 15:17:05 15:20:31 26° 320° (NW) 15:23:58 435.950
VELOX 1 18 Oct 15:21:30 15:23:06 12° 303° (WNW) 15:24:43 145.980
AO-85 18 Oct 15:21:50 15:25:20 31° 318° (NW) 15:28:59 145.980
UKube-1 18 Oct 15:25:36 15:29:45 45° 290° (WNW) 15:33:52 .
PCSat 18 Oct 15:28:48 15:31:44 14° 27° (NNE) 15:34:40 145.827
MOZHAYETS 4 18 Oct 15:30:47 15:34:57 33° 96° (E) 15:39:04
nSIGHT-1 18 Oct 15:31:49 15:34:56 46° 16° (NNE) 15:38:02 .
ITUPSAT 1 18 Oct 15:38:38 15:43:01 34° 97° (E) 15:47:22 437.325
BEESAT 3 18 Oct 15:43:07 15:43:44 10° 336° (NNW) 15:44:20 437.485
BEESAT 18 Oct 15:55:32 16:00:12 50° 100° (E) 16:04:50 436.000
ISS 18 Oct 15:58:57 16:02:12 58° 20° (NNE) 16:05:26 437.550
ITAMSAT 1 18 Oct 16:05:16 16:10:12 44° 261° (W) 16:15:12 435.822/435.867
DOVE 4 18 Oct 16:08:54 16:12:21 25° 65° (ENE) 16:15:55 437.250
AO-7 18 Oct 16:13:19 16:21:02 42° 261° (W) 16:28:49 .
CUTE-I 18 Oct 16:21:59 16:24:25 13° 54° (NE) 16:26:51 437.470
XW-2C 18 Oct 16:33:04 16:33:47 10° 60° (ENE) 16:34:29 145.795 - 145.815
HO-68 18 Oct 16:36:39 16:40:07 14° 44° (NE) 16:43:35 435.675
SO-50 18 Oct 16:47:09 16:51:23 37° 242° (WSW) 16:55:40 436.795
MOZHAYETS 4 18 Oct 17:08:03 17:12:02 30° 294° (WNW) 17:15:59
nSIGHT-1 18 Oct 17:08:10 17:11:12 41° 215° (SW) 17:14:16 .
PCSat 18 Oct 17:11:12 17:16:29 49° 50° (NE) 17:21:43 145.827
CUBESAT XI-V 18 Oct 17:12:50 17:17:27 81° 101° (ESE) 17:22:03 437.345
KKS-1 18 Oct 17:14:02 17:17:46 25° 95° (E) 17:21:29 437.445
ITUPSAT 1 18 Oct 17:16:33 17:20:47 31° 295° (WNW) 17:24:59 437.325
XW-2F 18 Oct 17:17:05 17:20:20 28° 68° (ENE) 17:23:35 145.980 - 146.000
LilacSat-2 18 Oct 17:17:24 17:20:50 32° 70° (ENE) 17:24:16 437.200
KAITUO 1B 18 Oct 17:19:21 17:22:22 23° 67° (ENE) 17:25:22 145.475/437.950
XW-2D 18 Oct 17:27:20 17:30:54 39° 71° (ENE) 17:34:28 145.860 - 145.880
BEESAT 18 Oct 17:33:58 17:37:39 23° 298° (WNW) 17:41:19 436.000
ISS 18 Oct 17:35:38 17:38:32 29° 218° (SW) 17:41:24 437.550
NUDT-PHONESAT 18 Oct 17:36:44 17:40:08 34° 70° (ENE) 17:43:31 437.300
XW-2B 18 Oct 17:40:32 17:44:15 53° 73° (ENE) 17:47:58 145.730 - 145.750
DOVE 4 18 Oct 17:46:09 17:49:56 33° 265° (W) 17:53:52 437.250
STARS 18 Oct 17:52:55 17:56:41 26° 95° (E) 18:00:25 437.465
CUTE-I 18 Oct 17:58:17 18:03:34 75° 73° (ENE) 18:08:55 437.470
XW-2C 18 Oct 18:03:33 18:07:22 80° 256° (WSW) 18:11:11 145.795 - 145.815
CUTE 1.7 + AOD 2 18 Oct 18:05:57 18:09:25 25° 66° (ENE) 18:12:55 437.475
SEEDS 18 Oct 18:17:35 18:20:46 21° 65° (ENE) 18:23:57 437.485
HO-68 18 Oct 18:19:24 18:26:22 57° 66° (ENE) 18:33:22 435.675
YUBILEINY 18 Oct 18:22:16 18:25:51 13° 47° (NE) 18:29:25 435.215
CUBEBUG 2 18 Oct 18:43:23 18:47:42 39° 69° (ENE) 18:52:08 437.445
AAUSAT CUBESAT 2 18 Oct 18:48:04 18:51:06 20° 64° (ENE) 18:54:09 437.432
AO-73 18 Oct 18:49:35 18:52:10 15° 60° (ENE) 18:54:45 145.935
KKS-1 18 Oct 18:50:16 18:54:24 37° 292° (WNW) 18:58:32 437.445
XW-2F 18 Oct 18:51:18 18:54:25 24° 265° (W) 18:57:33 145.980 - 146.000
STRAND 1 18 Oct 18:51:34 18:53:33 12° 87° (E) 18:55:32 437.568
CUBESAT XI-V 18 Oct 18:51:49 18:54:12 14° 301° (WNW) 18:56:34 437.345
LilacSat-2 18 Oct 18:52:10 18:55:10 21° 266° (W) 18:58:09 437.200
KAITUO 1B 18 Oct 18:52:58 18:56:14 28° 264° (W) 18:59:30 145.475/437.950
PCSat 18 Oct 18:55:00 18:59:40 30° 249° (WSW) 19:04:19 145.827
BEESAT 3 18 Oct 19:02:22 19:02:51 10° 24° (NNE) 19:03:21 437.485
XW-2D 18 Oct 19:02:39 19:05:14 17° 268° (W) 19:07:50 145.860 - 145.880
ZACube-1 18 Oct 19:08:59 19:12:40 25° 65° (ENE) 19:16:23 437.345
NUDT-PHONESAT 18 Oct 19:11:23 19:14:05 19° 267° (W) 19:16:47 437.300
XW-2B 18 Oct 19:16:55 19:18:45 13° 270° (W) 19:20:34 145.730 - 145.750
UWE-3 18 Oct 19:25:37 19:30:11 59° 72° (ENE) 19:34:49 435.000/436.395/437.385
STARS 18 Oct 19:29:02 19:33:05 35° 292° (WNW) 19:37:06 437.465
CUTE-I 18 Oct 19:40:55 19:44:13 16° 271° (W) 19:47:31 437.470
CUTE 1.7 + AOD 2 18 Oct 19:41:16 19:45:07 33° 263° (W) 19:48:59 437.475
XW-2A 18 Oct 19:42:29 19:45:54 74° 258° (WSW) 19:49:20 145.665 - 145.685
Oscar 11 18 Oct 19:49:10 19:53:07 35° 69° (ENE) 19:57:04 .
SEEDS 18 Oct 19:52:17 19:56:13 40° 262° (W) 20:00:10 437.485
HO-68 18 Oct 20:08:07 20:14:25 33° 265° (W) 20:20:46 435.675
YUBILEINY 18 Oct 20:16:37 20:25:11 53° 73° (ENE) 20:33:45 435.215
BEESAT 2 18 Oct 20:16:49 20:19:05 14° 31° (NNE) 20:21:20 435.950
CUBEBUG 2 18 Oct 20:20:29 20:24:25 26° 267° (W) 20:28:26 437.445
Max Valier Satellite 18 Oct 20:21:28 20:23:01 12° 61° (ENE) 20:24:32 145.860
AAUSAT CUBESAT 2 18 Oct 20:22:25 20:26:18 41° 262° (W) 20:30:12 437.432
AO-73 18 Oct 20:23:14 20:27:48 75° 257° (WSW) 20:32:23 145.935
STRAND 1 18 Oct 20:28:17 20:33:29 86° 105° (ESE) 20:38:39 437.568
AO-85 18 Oct 20:29:11 20:31:59 16° 32° (NNE) 20:34:53 145.980
DELFI C3 18 Oct 20:34:41 20:37:48 23° 66° (ENE) 20:40:57 145.870
BEESAT 3 18 Oct 20:37:42 20:41:29 39° 46° (NE) 20:45:12 437.485
ZACube-1 18 Oct 20:44:23 20:48:43 42° 263° (W) 20:53:06 437.345
FO-29 18 Oct 21:03:49 21:10:11 41° 97° (E) 21:17:09 435.910
UWE-3 18 Oct 21:03:57 21:07:01 17° 271° (W) 21:10:06 435.000/436.395/437.385
O/OREOS (USA 219) 18 Oct 21:04:53 21:09:17 50° 109° (ESE) 21:13:45 437.305
Oscar 11 18 Oct 21:25:44 21:29:19 25° 266° (W) 21:32:55 .
EO-88 18 Oct 21:47:19 21:50:59 81° 73° (ENE) 21:54:39 145.990 - 145.960
UNISAT 6 18 Oct 21:48:23 21:52:05 23° 92° (E) 21:55:42 437.425
Max Valier Satellite 18 Oct 21:52:37 21:56:20 64° 259° (WSW) 22:00:04 145.860
BEESAT 2 18 Oct 21:53:30 21:57:34 69° 50° (NE) 22:01:33 435.950
PRISM 18 Oct 21:56:09 21:56:42 10° 88° (E) 21:57:14 437.425
TIGRISAT 18 Oct 22:03:29 22:07:34 29° 94° (E) 22:11:32 435.000
AO-85 18 Oct 22:08:36 22:13:06 72° 52° (NE) 22:17:55 145.980
DELFI C3 18 Oct 22:08:55 22:12:25 31° 264° (W) 22:15:57 145.870
STRAND 1 18 Oct 22:08:57 22:11:59 16° 303° (WNW) 22:14:59 437.568
YUBILEINY 18 Oct 22:13:50 22:21:45 40° 275° (W) 22:29:42 435.215
BEESAT 3 18 Oct 22:15:36 22:18:51 24° 245° (WSW) 22:22:01 437.485
SPROUT 18 Oct 22:40:16 22:40:51 10° 57° (ENE) 22:41:25 437.525
LO-87 18 Oct 22:43:12 22:46:40 48° 72° (ENE) 22:50:11 145.935 - 145.965
O/OREOS (USA 219) 18 Oct 22:45:20 22:48:58 23° 309° (NW) 22:52:40 437.305
FO-29 18 Oct 22:48:58 22:55:14 46° 293° (WNW) 23:02:10 435.910
ESTCUBE 1 18 Oct 23:08:24 23:12:51 68° 73° (ENE) 23:17:19 437.505/2401.250
VELOX 1 18 Oct 23:08:34 23:11:02 15° 59° (ENE) 23:13:31 145.980
UNISAT 6 18 Oct 23:24:34 23:28:58 43° 291° (WNW) 23:33:16 437.425
PRISM 18 Oct 23:28:22 23:32:30 80° 286° (WNW) 23:36:37 437.425
BEESAT 2 18 Oct 23:32:39 23:34:45 14° 250° (WSW) 23:36:51 435.950
QB50P2 18 Oct 23:33:41 23:36:03 14° 90° (E) 23:38:23 145.880/145.840
NANOSAT C BR1 18 Oct 23:39:08 23:41:10 13° 89° (E) 23:43:11 145.865
TIGRISAT 18 Oct 23:40:04 23:44:15 34° 293° (WNW) 23:48:21 435.000
AO-85 18 Oct 23:50:05 23:53:06 17° 248° (WSW) 23:56:15 145.980
DUCHIFAT 1 18 Oct 23:50:33 23:53:04 15° 90° (E) 23:55:33 145.980
AIST 2D 18 Oct 23:52:14 23:55:39 51° 100° (E) 23:59:01 435.315
RS-15 19 Oct 00:00:56 00:11:20 35° 105° (ESE) 00:21:44 29.354- 29.394
SPROUT 19 Oct 00:11:41 00:15:58 80° 74° (ENE) 00:20:17 437.525
LO-87 19 Oct 00:18:37 00:20:21 13° 270° (W) 00:22:07 145.935 - 145.965
DX 1 19 Oct 00:19:49 00:23:00 20° 62° (ENE) 00:26:13 434.975-435.025
FO-29 19 Oct 00:38:12 00:38:54 10° 313° (NW) 00:39:35 435.910
VELOX 1 19 Oct 00:42:34 00:46:55 70° 256° (WSW) 00:51:20 145.980
EO-79 19 Oct 00:43:35 00:47:51 68° 102° (ESE) 00:52:05 145.935-145.965
UKube-1 19 Oct 00:47:19 00:50:48 25° 64° (ENE) 00:54:17 .
POLYITAN 1 19 Oct 00:47:47 00:52:04 76° 102° (ESE) 00:56:19 437.675
ESTCUBE 1 19 Oct 00:47:47 00:50:08 14° 271° (W) 00:52:28 437.505/2401.250
QB50P2 19 Oct 01:08:00 01:12:14 61° 287° (WNW) 01:16:25 145.880/145.840
NANOSAT C BR1 19 Oct 01:13:05 01:17:20 66° 286° (WNW) 01:21:31 145.865
50 SAT 19 Oct 01:24:52 01:28:06 69° 258° (WSW) 01:31:24 437.505
DUCHIFAT 1 19 Oct 01:24:54 01:29:05 56° 288° (WNW) 01:33:13 145.980
AIST 2D 19 Oct 01:26:54 01:28:24 12° 297° (WNW) 01:29:54 435.315
BEESAT 19 Oct 01:30:15 01:32:12 12° 55° (NE) 01:34:08 436.000
BUGSAT 1 19 Oct 01:39:35 01:43:47 57° 101° (E) 01:47:55 437.445
SPROUT 19 Oct 01:51:13 01:52:25 11° 273° (W) 01:53:38 437.525
DX 1 19 Oct 01:54:44 01:58:53 46° 260° (W) 02:03:05 434.975-435.025
Oscar 19 19 Oct 02:06:39 02:11:40 51° 100° (E) 02:16:38 437.125/150
RS-15 19 Oct 02:10:20 02:22:43 82° 308° (NW) 02:35:04 29.354- 29.394
EO-79 19 Oct 02:20:44 02:23:05 15° 300° (WNW) 02:25:25 145.935-145.965
AO-7 19 Oct 02:22:23 02:24:10 11° 82° (E) 02:25:56 .
UKube-1 19 Oct 02:22:40 02:26:38 37° 262° (W) 02:30:39 .
Gurwin Techsat 1B 19 Oct 02:24:10 02:29:23 52° 100° (E) 02:34:33 435.225
POLYITAN 1 19 Oct 02:25:11 02:27:16 13° 301° (WNW) 02:29:20 437.675
MOZHAYETS 4 19 Oct 02:35:01 02:39:26 45° 70° (ENE) 02:43:51
NO-84 19 Oct 02:40:07 02:40:14 10° 123° (ESE) 02:40:22 435.350 FM
CUBESAT XI-V 19 Oct 02:43:51 02:46:26 15° 59° (ENE) 02:49:00 437.345
M-CUBED/EXP-1 PRIME 19 Oct 02:46:52 02:50:22 89° 107° (ESE) 02:54:04 437.505
ITUPSAT 1 19 Oct 02:47:48 02:52:29 56° 71° (ENE) 02:57:13 437.325
BEESAT 19 Oct 03:04:23 03:09:10 81° 75° (ENE) 03:14:00 436.000
BUGSAT 1 19 Oct 03:15:59 03:18:42 17° 299° (WNW) 03:21:23 437.445
Oscar 19 19 Oct 03:46:36 03:50:40 24° 298° (WNW) 03:54:44 437.125/150
Gurwin Techsat 1B 19 Oct 04:04:43 04:09:01 25° 298° (WNW) 04:13:18 435.225
AO-7 19 Oct 04:10:36 04:18:46 57° 103° (ESE) 04:26:55 .
NO-84 19 Oct 04:12:43 04:16:56 56° 140° (SE) 04:21:03 435.350 FM
MOZHAYETS 4 19 Oct 04:13:10 04:16:47 22° 268° (W) 04:20:25
KKS-1 19 Oct 04:14:34 04:18:32 33° 67° (ENE) 04:22:33 437.445
ITAMSAT 1 19 Oct 04:14:44 04:19:51 51° 100° (E) 04:24:57 435.822/435.867
CUBESAT XI-V 19 Oct 04:18:34 04:23:12 77° 257° (WSW) 04:27:51 437.345
RS-15 19 Oct 04:25:58 04:37:18 39° 337° (NNW) 04:48:25 29.354- 29.394
ITUPSAT 1 19 Oct 04:27:15 04:30:40 19° 269° (W) 04:34:06 437.325
BEESAT 19 Oct 04:45:20 04:47:33 13° 272° (W) 04:49:47 436.000
STARS 19 Oct 04:51:57 04:55:54 34° 67° (ENE) 04:59:54 437.465
O/OREOS (USA 219) 19 Oct 05:33:09 05:36:49 23° 51° (NE) 05:40:27 437.305
DOVE 4 19 Oct 05:40:22 05:45:09 51° 99° (E) 05:50:10 437.250
NO-84 19 Oct 05:50:28 05:54:31 40° 338° (NNW) 05:58:24 435.350 FM
KKS-1 19 Oct 05:51:19 05:55:07 28° 265° (W) 05:58:57 437.445
ITAMSAT 1 19 Oct 05:54:47 05:59:01 25° 299° (WNW) 06:03:15 435.822/435.867
AO-7 19 Oct 06:03:46 06:11:17 40° 304° (WNW) 06:18:46 .
STRAND 1 19 Oct 06:09:13 06:13:20 25° 62° (ENE) 06:17:29 437.568
CUTE-I 19 Oct 06:12:52 06:17:10 24° 93° (E) 06:21:27 437.470
XW-2F 19 Oct 06:19:51 06:23:01 26° 95° (E) 06:26:09 145.980 - 146.000
KAITUO 1B 19 Oct 06:20:59 06:23:50 21° 94° (E) 06:26:41 145.475/437.950
LilacSat-2 19 Oct 06:21:33 06:24:57 31° 97° (E) 06:28:18 437.200
STARS 19 Oct 06:28:32 06:32:16 27° 265° (W) 06:36:03 437.465
XW-2D 19 Oct 06:30:44 06:34:15 38° 98° (E) 06:37:45 145.860 - 145.880
NUDT-PHONESAT 19 Oct 06:37:29 06:40:46 30° 96° (E) 06:44:02 437.300
RS-15 19 Oct 06:43:10 06:54:02 34° 12° (NNE) 07:04:29 29.354- 29.394
XW-2B 19 Oct 06:44:02 06:47:42 52° 100° (E) 06:51:21 145.730 - 145.750
SO-50 19 Oct 07:03:49 07:07:52 34° 118° (ESE) 07:11:57 436.795
XW-2C 19 Oct 07:07:09 07:10:54 80° 286° (WNW) 07:14:38 145.795 - 145.815
O/OREOS (USA 219) 19 Oct 07:12:02 07:16:32 51° 251° (WSW) 07:20:58 437.305
DOVE 4 19 Oct 07:18:41 07:22:34 24° 296° (WNW) 07:26:34 437.250
FO-29 19 Oct 07:21:39 07:25:28 20° 57° (ENE) 07:29:31 435.910
CUTE 1.7 + AOD 2 19 Oct 07:22:47 07:26:35 32° 96° (E) 07:30:21 437.475
NO-84 19 Oct 07:29:15 07:32:42 25° 359° (N) 07:36:00 435.350 FM
HO-68 19 Oct 07:31:19 07:38:11 45° 98° (E) 07:45:01 435.675
SEEDS 19 Oct 07:33:01 07:36:32 26° 94° (E) 07:40:02 437.485
YUBILEINY 19 Oct 07:34:13 07:34:46 10° 67° (ENE) 07:35:20 435.215
STRAND 1 19 Oct 07:47:13 07:52:12 50° 260° (W) 07:57:14 437.568
CUTE-I 19 Oct 07:52:18 07:57:31 53° 290° (WNW) 08:02:43 437.470
XW-2F 19 Oct 07:53:58 07:57:05 25° 292° (WNW) 08:00:09 145.980 - 146.000
KAITUO 1B 19 Oct 07:54:36 07:57:52 30° 291° (WNW) 08:01:06 145.475/437.950
LilacSat-2 19 Oct 07:56:07 07:59:04 22° 294° (WNW) 08:01:59 437.200
PCSat 19 Oct 07:56:49 08:00:58 23° 108° (ESE) 08:05:10 145.827
AO-7 19 Oct 07:59:04 08:01:47 12° 327° (NNW) 08:04:30 .
AAUSAT CUBESAT 2 19 Oct 08:01:32 08:04:54 24° 94° (E) 08:08:15 437.432
XW-2D 19 Oct 08:05:33 08:08:10 18° 295° (WNW) 08:10:47 145.860 - 145.880
CUBEBUG 2 19 Oct 08:07:26 08:12:05 58° 100° (E) 08:16:33 437.445
AO-73 19 Oct 08:09:23 08:12:19 17° 90° (E) 08:15:12 145.935
NUDT-PHONESAT 19 Oct 08:11:40 08:14:28 21° 294° (WNW) 08:17:15 437.300
XW-2B 19 Oct 08:19:27 08:21:28 14° 298° (WNW) 08:23:30 145.730 - 145.750
ZACube-1 19 Oct 08:29:49 08:33:46 31° 95° (E) 08:37:36 437.345
XW-2A 19 Oct 08:33:43 08:37:05 75° 103° (ESE) 08:40:24 145.665 - 145.685
SO-50 19 Oct 08:44:09 08:48:18 36° 317° (NW) 08:52:30 436.795
PRISM 19 Oct 08:47:41 08:49:16 12° 59° (ENE) 08:50:52 437.425
UWE-3 19 Oct 08:48:38 08:53:14 87° 103° (ESE) 08:57:40 435.000/436.395/437.385
UNISAT 6 19 Oct 08:49:30 08:53:30 29° 66° (ENE) 08:57:33 437.425
RS-15 19 Oct 08:57:25 09:09:27 63° 43° (NE) 09:20:48 29.354- 29.394
CUTE 1.7 + AOD 2 19 Oct 08:58:48 09:02:18 26° 293° (WNW) 09:05:47 437.475
TIGRISAT 19 Oct 09:04:23 09:08:38 36° 68° (ENE) 09:12:57 435.000
FO-29 19 Oct 09:04:50 09:10:00 66° 258° (WSW) 09:15:37 435.910
NO-84 19 Oct 09:07:11 09:10:56 36° 20° (NNE) 09:14:24 435.350 FM
SEEDS 19 Oct 09:08:32 09:12:14 31° 292° (WNW) 09:15:54 437.485
Oscar 11 19 Oct 09:08:57 09:13:09 48° 99° (E) 09:17:17 .
HO-68 19 Oct 09:19:12 09:25:53 43° 298° (WNW) 09:32:32 435.675
YUBILEINY 19 Oct 09:21:03 09:29:23 54° 90° (E) 09:37:46 435.215
AAUSAT CUBESAT 2 19 Oct 09:36:41 09:40:24 33° 291° (WNW) 09:44:07 437.432
PCSat 19 Oct 09:38:33 09:43:56 62° 307° (NW) 09:49:20 145.827
DELFI C3 19 Oct 09:42:32 09:45:50 25° 94° (E) 09:49:06 145.870
AO-73 19 Oct 09:44:36 09:48:53 51° 288° (WNW) 09:53:01 145.935
CUBEBUG 2 19 Oct 09:44:57 09:48:14 19° 299° (WNW) 09:51:27 437.445
nSIGHT-1 19 Oct 09:49:46 09:50:46 11° 133° (SE) 09:51:46 .
ZACube-1 19 Oct 10:06:09 10:09:58 29° 294° (WNW) 10:13:42 437.345
POLYITAN 1 19 Oct 10:11:05 10:11:46 10° 57° (ENE) 10:12:27 437.675
ISS 19 Oct 10:17:45 10:20:01 18° 137° (SE) 10:22:17 437.550
PRISM 19 Oct 10:19:55 10:23:57 78° 255° (WSW) 10:28:02 437.425
UNISAT 6 19 Oct 10:25:49 10:30:04 36° 264° (W) 10:34:25 437.425
UWE-3 19 Oct 10:26:57 10:28:58 13° 302° (WNW) 10:30:56 435.000/436.395/437.385
SO-50 19 Oct 10:28:31 10:30:04 11° 340° (NNW) 10:31:37 436.795
QB50P2 19 Oct 10:28:55 10:31:41 17° 61° (ENE) 10:34:26 145.880/145.840
AIST 2D 19 Oct 10:29:04 10:32:07 29° 70° (ENE) 10:35:12 435.315
NANOSAT C BR1 19 Oct 10:33:49 10:36:20 16° 61° (ENE) 10:38:52 145.865
TIGRISAT 19 Oct 10:41:22 10:45:22 28° 266° (W) 10:49:25 435.000
NO-84 19 Oct 10:44:43 10:48:28 53° 221° (SW) 10:51:54 435.350 FM
DUCHIFAT 1 19 Oct 10:44:57 10:47:47 18° 62° (ENE) 10:50:37 145.980
Oscar 11 19 Oct 10:45:52 10:48:57 19° 297° (WNW) 10:52:01 .
EO-88 19 Oct 10:46:27 10:50:05 70° 101° (E) 10:53:41 145.990 - 145.960
Max Valier Satellite 19 Oct 10:53:13 10:56:54 69° 284° (WNW) 11:00:32 145.860
ESTCUBE 1 19 Oct 11:00:00 11:01:31 11° 87° (E) 11:03:02 437.505/2401.250
HO-68 19 Oct 11:10:18 11:11:46 11° 320° (NW) 11:13:14 435.675
RS-15 19 Oct 11:10:31 11:21:37 48° 249° (WSW) 11:32:10 29.354- 29.394
DELFI C3 19 Oct 11:17:06 11:20:35 30° 292° (WNW) 11:24:03 145.870
YUBILEINY 19 Oct 11:18:31 11:26:29 39° 292° (WNW) 11:34:32 435.215
nSIGHT-1 19 Oct 11:23:21 11:26:31 68° 150° (SSE) 11:29:42 .
PCSat 19 Oct 11:25:00 11:28:26 17° 329° (NNW) 11:31:54 145.827
EO-79 19 Oct 11:38:11 11:42:25 72° 74° (ENE) 11:46:42 145.935-145.965
LO-87 19 Oct 11:40:17 11:43:44 39° 98° (E) 11:47:09 145.935 - 145.965
POLYITAN 1 19 Oct 11:42:30 11:46:47 80° 75° (ENE) 11:51:07 437.675
Oscar 19 19 Oct 11:49:37 11:52:45 16° 57° (ENE) 11:55:54 437.125/150
ISS 19 Oct 11:52:53 11:56:08 84° 334° (NNW) 11:59:25 437.550
SPROUT 19 Oct 11:56:39 11:57:53 11° 87° (E) 11:59:08 437.525
AIST 2D 19 Oct 12:02:41 12:05:20 20° 267° (W) 12:07:59 435.315
QB50P2 19 Oct 12:02:50 12:07:02 57° 259° (W) 12:11:17 145.880/145.840
M-CUBED/EXP-1 PRIME 19 Oct 12:02:50 12:04:53 16° 59° (ENE) 12:06:54 437.505
BEESAT 3 19 Oct 12:07:08 12:10:25 25° 115° (ESE) 12:13:44 437.485
NANOSAT C BR1 19 Oct 12:07:20 12:11:33 63° 259° (WSW) 12:15:48 145.865
Gurwin Techsat 1B 19 Oct 12:10:36 12:14:07 18° 58° (ENE) 12:17:40 435.225
EO-88 19 Oct 12:22:20 12:23:12 11° 299° (WNW) 12:24:02 145.990 - 145.960
